Change the Weather History Date:

Friday, January 31, 2014

  Actual Average Record
Temperature  
Mean Temperature 13 °F 23 °F  
Max Temperature 16 °F 32 °F 71 °F (1989)
Min Temperature 9 °F 14 °F -20 °F (1996)
Degree Days  
Heating Degree Days 52 42  
Month to date heating degree days 1490 1320  
Since 1 July heating degree days 4164 3822  
Cooling Degree Days 0 0  
Month to date cooling degree days 0 0  
Year to date cooling degree days 0 0  
Moisture  
Dew Point 4 °F    
Average Humidity 67    
Maximum Humidity 73    
Minimum Humidity 61    
Precipitation  
Precipitation T in 0.03 in 0.56 in (2015)
Month to date precipitation 0.12 0.90  
Year to date precipitation 0.12 0.90  
Sea Level Pressure  
Sea Level Pressure 30.14 in    
Wind  
Wind Speed 9 mph (NNE)    
Max Wind Speed 20 mph    
Max Gust Speed 23 mph    
Visibility 8 miles    
Events Snow    
T = Trace of Precipitation, MM = Missing Value Source: NWS Daily Summary

Daily Weather History Graph

Daily Weather History Graph

Search for Another Location

Airport or City:

Trip Planner

Search our weather history database for the weather conditions in past years. The results will help you decide how hot, cold, wet, or windy it might be!

Date:

Astronomy

Jan. 31, 2014 Rise Set
Actual Time 7:21 AM CST 5:25 PM CST
Civil Twilight 6:52 AM CST 5:54 PM CST
Nautical Twilight 6:19 AM CST 6:27 PM CST
Astronomical Twilight 5:47 AM CST 7:00 PM CST
Moon 7:30 AM CST (1/31) 6:51 PM CST (1/31)
Length of Visible Light 11h 02m
Length of Day
10h 03m
New Moon, 1% of the Moon is Illuminated
Jan 31
New Moon
Feb 6
First Quarter
Feb 14
Full
Feb 22
Last Quarter
Mar 1
New

Hourly Weather History & Observations

Time (CST) Temp. Windchill Dew Point Humidity Pressure Visibility Wind Dir Wind Speed Gust Speed Precip Events Conditions
12:53 AM 12.9 °F -1.6 °F 3.9 °F 67% 30.09 in 10.0 mi NNW 12.7 mph - N/A   Clear
1:53 AM 10.9 °F -4.1 °F 1.9 °F 67% 30.09 in 10.0 mi NNW 12.7 mph - N/A   Overcast
2:53 AM 10.0 °F -8.1 °F 1.0 °F 67% 30.12 in 10.0 mi NNW 18.4 mph - N/A   Clear
3:53 AM 10.0 °F -5.9 °F -0.0 °F 64% 30.13 in 10.0 mi NNW 13.8 mph - N/A   Mostly Cloudy
4:53 AM 10.0 °F -2.9 °F -0.0 °F 64% 30.16 in 10.0 mi NNW 9.2 mph - N/A   Overcast
5:53 AM 9.0 °F -4.2 °F -0.9 °F 64% 30.16 in 10.0 mi NNW 9.2 mph - N/A   Overcast
6:53 AM 9.0 °F -4.2 °F -0.9 °F 64% 30.18 in 10.0 mi NNW 9.2 mph - N/A   Overcast
7:53 AM 9.0 °F -2.2 °F -0.9 °F 64% 30.17 in 10.0 mi North 6.9 mph - N/A   Overcast
8:53 AM 10.0 °F -1.9 °F -0.9 °F 61% 30.21 in 10.0 mi NNW 8.1 mph - N/A   Overcast
9:53 AM 10.0 °F -0.9 °F -0.9 °F 61% 30.22 in 10.0 mi North 6.9 mph - N/A   Overcast
10:53 AM 10.9 °F 0.2 °F -0.0 °F 61% 30.24 in 9.0 mi NNW 6.9 mph - 0.00 in   Overcast
11:51 AM 12.2 °F -0.2 °F 1.4 °F 62% 30.17 in 2.0 mi North 9.2 mph - 0.00 in Snow Light Snow
11:53 AM 12.0 °F 1.5 °F 1.9 °F 64% 30.22 in 2.0 mi North 6.9 mph - 0.00 in Snow Light Snow
12:16 PM 12.0 °F 0.5 °F 3.9 °F 70% 30.16 in 3.0 mi North 8.1 mph - 0.00 in Snow Light Snow
12:53 PM 12.0 °F 1.5 °F 3.9 °F 70% 30.19 in 3.0 mi North 6.9 mph - 0.00 in Snow Light Snow
1:00 PM 12.0 °F 4.1 °F 5.0 °F 73% 30.13 in 2.5 mi North 4.6 mph - 0.00 in Snow Light Snow
1:53 PM 14.0 °F 5.1 °F 7.0 °F 74% 30.16 in 2.5 mi NNE 5.8 mph - 0.00 in Snow Light Snow
2:00 PM 14.0 °F 3.9 °F 7.0 °F 74% 30.11 in 3.0 mi NNE 6.9 mph - 0.00 in Snow Light Snow
2:53 PM 16.0 °F 7.4 °F 8.1 °F 71% 30.14 in 5.0 mi Variable 5.8 mph - 0.00 in Snow Light Snow
3:53 PM 16.0 °F 4.4 °F 8.1 °F 71% 30.11 in 10.0 mi NE 9.2 mph - 0.00 in   Clear
4:53 PM 16.0 °F 6.3 °F 8.1 °F 71% 30.13 in 10.0 mi ENE 6.9 mph - N/A   Clear
5:53 PM 16.0 °F 5.3 °F 7.0 °F 68% 30.12 in 10.0 mi ENE 8.1 mph - N/A   Clear
6:53 PM 14.0 °F 2.9 °F 5.0 °F 67% 30.12 in 10.0 mi East 8.1 mph - N/A   Clear
7:53 PM 14.0 °F 2.9 °F 5.0 °F 67% 30.11 in 10.0 mi East 8.1 mph - N/A   Overcast
8:53 PM 15.1 °F 3.3 °F 6.1 °F 68% 30.10 in 10.0 mi ENE 9.2 mph - N/A   Overcast
9:53 PM 15.1 °F 5.2 °F 6.1 °F 68% 30.10 in 10.0 mi East 6.9 mph - N/A   Overcast
10:53 PM 15.1 °F 4.2 °F 7.0 °F 70% 30.07 in 10.0 mi East 8.1 mph - N/A   Overcast
11:11 PM 15.1 °F 3.3 °F 7.0 °F 70% 29.99 in 10.0 mi East 9.2 mph - N/A   Overcast
11:53 PM 15.1 °F 4.2 °F 8.1 °F 74% 30.04 in 7.0 mi ENE 8.1 mph - N/A   Overcast